BATSU-CS1 (IRAZU) (43468 NORAD) Tracking and Keplerian Element Data

This shows tracking and keplerian element data for the satellite.

Feedback or suggestion? Click here.




ElementValue
Catalog43468
NameBATSU-CS1 (IRAZU)
Epoch Orbit20397
Epoch Day64.05831928
Epoch Year2020
RAAN66.143
Inclination51.6208
Eccentricity0.000224
Argument of Perigee149.867
Mean Anonmoly210.2481
Mean Motion16.30203714
Decay Rate0.04860327
L11 43468U 98067NR 20064.05831928 .04860327 12102-4 10158-2 0 9990
L22 43468 51.6208 66.1430 0002240 149.8670 210.2481 16.30203714203978



Live tracking and technical data element details for BATSU-CS1 (IRAZU) (NORAD 43468). BATSU-CS1 (IRAZU) can be tracked NOW for your location showing map with azimuth and elevation plus other details from your city location.







IsCatalogInMostPopularTable: catalog: 43468, numindb: 1266
Update: records affected: 1



GetName: 43468 BATSU-CS1 (IRAZU)

Hit Count: updated at: Thu, 10 Jul 2025 23:23:45 GMT